[[{"header":{"parameterUnit":"m.s-1","parameterCategory":1,"la1":30.2991,"la2":30.254,"lo1":-89.0895,"lo2":-89.0444,"dx":0.0017,"dy":0.0017,"nx":28,"ny":28,"refTime":"2022-11-30T15:00:00:Z","depth":0,"parameterNumber":2,"parameterNumberName":"U-component_of_WINDS"},"data":[0,0,0,0,0,0,0,0,0,0,0,0,0,0,0,0,0,0,0,0,0,0,0,0,0,0,0,0,0,0,0,0,0,0,0,0,0,0,0,0,0,0,0,0,0,0,0,0,0,0,0,0,0,0,0,0,0,0,-3.7323,-3.7325,0,-3.7481,-3.7482,-3.7484,-3.743,-3.7427,-3.7423,-3.742,-3.7586,-3.7594,-3.7601,0,0,0,0,0,0,0,0,0,0,0,0,0,-3.6981,-3.6987,-3.7323,-3.7325,-3.7327,-3.748,-3.7482,-3.7485,-3.7431,-3.7427,-3.7423,-3.7419,-3.7584,-3.7593,-3.7602,0,0,0,0,0,0,0,0,0,0,0,0,0,-3.7133,-3.699,-3.7323,-3.7319,-3.732,-3.748,-3.7483,-3.7485,-3.7432,-3.7427,-3.7421,-3.7417,-3.7581,-3.7592,-3.7603,-3.7778,0,0,-3.7639,-3.7643,0,0,0,0,0,0,0,0,-3.7125,-3.7146,-3.7317,-3.7319,-3.7321,-3.743,-3.7423,-3.7584,-3.7433,-3.739,-3.742,-3.7414,-3.7539,-3.7554,-3.7595,-3.7786,-3.7793,-3.764,-3.7646,-3.7651,-3.7655,0,0,0,0,0,0,0,-3.7114,-3.7139,-3.7385,-3.732,-3.7322,-3.7311,-3.7326,-3.7453,-3.7492,-3.7393,-3.7389,-3.7408,-3.7539,-3.7584,-3.7598,-3.7796,-3.7639,-3.7649,-3.7657,-3.7661,-3.814,-3.8145,0,0,0,0,0,0,-3.7102,-3.713,-3.738,-3.739,-3.7208,-3.7321,-3.7339,-3.7401,-3.749,-3.7499,-3.7413,-3.7405,-3.7567,-3.7585,-3.7604,-3.7815,-3.7651,-3.7662,-3.7669,-3.8134,-3.8141,-3.8147,0,0,0,0,0,0,-3.7095,-3.7125,-3.7374,-3.7259,-3.729,-3.7332,-3.7402,-3.7406,-3.7451,-3.7505,-3.7512,-3.7451,-3.7563,-3.7588,-3.7735,-3.782,-3.7667,-3.7678,-3.8127,-3.8136,-3.8144,-3.8238,0,0,0,0,0,0,-3.7085,-3.7123,-3.7188,-3.7261,-3.7297,-3.7502,-3.7407,-3.7413,-3.747,-3.7462,-3.7543,-3.7551,-3.7561,-3.7718,-3.7747,-3.7833,-3.7687,-3.812,-3.8131,-3.8141,-3.8228,-3.8249,-3.8267,0,0,0,0,0,-3.7073,-3.721,-3.7192,-3.7222,-3.7379,-3.7506,-3.7527,-3.7534,-3.7477,-3.7545,-3.7579,-3.7549,-3.7806,-3.7734,-3.7765,-3.7856,-3.8114,-3.8128,-3.8141,-3.8219,-3.8245,-3.8267,0,0,0,0,0,0,-3.7147,-3.7219,-3.72,-3.7364,-3.7429,-3.7497,-3.7582,-3.7561,-3.7645,-3.7635,-3.7641,-3.766,-3.7812,-3.7849,-3.7767,-3.8031,-3.7952,-3.7972,-3.8001,-3.8026,-3.8045,-3.8033,-3.7696,0,0,0,0,0,-3.7182,-3.7278,-3.7336,-3.7475,-3.7509,-3.754,-3.7596,-3.7595,-3.7664,-3.7692,-3.7737,-3.7807,-3.7903,-3.7967,-3.8059,-3.8233,-3.825,-3.8311,-3.8331,-3.8347,-3.8364,-3.846,-3.8488,-3.819,-3.819,-3.819,0,0,-3.7256,-3.7307,-3.7367,-3.7491,-3.7542,-3.7642,-3.7564,-3.7673,-3.7748,-3.7709,-3.785,-3.7887,-3.7965,-3.8127,-3.82,-3.8162,-3.845,-3.8364,-3.8376,-3.8385,-3.8476,-3.8504,-3.8529,-3.8199,-3.8198,-3.8196,0,0,-3.7442,-3.749,-3.7611,-3.7663,-3.774,-3.776,-3.7789,-3.7861,-3.7883,-3.8024,-3.7997,-3.8088,-3.8253,-3.831,-3.8361,-3.8569,-3.8544,-3.8599,-3.8702,-3.8795,-3.8819,-3.884,-3.8914,-3.8941,-3.8616,-3.8616,-3.8616,0,-3.7524,-3.7673,-3.7676,-3.7788,-3.7843,-3.7811,-3.7935,-3.7986,-3.809,-3.813,-3.8085,-3.8293,-3.8343,-3.8518,-3.8569,-3.8611,-3.8645,-3.8589,-3.8815,-3.8836,-3.8855,-3.8926,-3.8954,-3.8622,-3.8621,-3.8621,-3.862,0,-3.7771,-3.7874,-3.7963,-3.8062,-3.8128,-3.8245,-3.8268,-3.8334,-3.8329,-3.8354,-3.85,-3.8559,-3.8662,-3.8704,-3.87,-3.8879,-3.8853,-3.8812,-3.8733,-3.889,-3.8957,-3.8984,-3.8631,-3.8629,-3.8627,-3.8625,0,0,-3.8007,-3.8106,-3.8139,-3.8184,-3.8267,-3.8348,-3.8464,-3.8564,-3.8621,-3.8694,-3.8793,-3.8934,-3.8897,-3.8954,-3.8957,-3.9039,-3.92,-3.8988,-3.899,-3.9025,-3.9401,-3.9431,-3.9462,-3.9184,-3.9189,-3.9193,-3.9394,0,-3.82,-3.8402,-3.8408,-3.8594,-3.869,-3.8661,-3.8763,-3.8826,-3.8853,-3.894,-3.897,-3.907,-3.9013,-3.9048,-3.9127,-3.9163,-3.9275,-3.9149,-3.9277,-3.9281,-3.9258,-3.9497,-3.9529,-3.9716,-3.9421,-3.9425,-3.9428,0,-3.8451,-3.853,-3.8725,-3.8794,-3.8835,-3.8925,-3.9017,-3.91,-3.9172,-3.9186,-3.925,-3.9241,-3.9362,-3.9279,-3.9446,-3.936,-3.9413,-3.9438,-3.9446,-3.9458,-3.9364,-3.9516,-3.9776,-3.9804,-3.947,-3.9466,-3.9463,0,-3.8604,-3.8759,-3.8896,-3.8935,-3.902,-3.9084,-3.9123,-3.9189,-3.9248,-3.9329,-3.9368,-3.9463,-3.9515,-3.959,-3.9607,-3.9545,-3.9774,-3.9693,-3.979,-3.979,-3.984,-3.9836,-4.0112,-3.9875,-3.9874,-3.9874,-3.9873,0,-3.8818,-3.8938,-3.8965,-3.9049,-3.9184,-3.9191,-3.9325,-3.9359,-3.9418,-3.9509,-3.9491,-3.9578,-3.9595,-3.9686,-3.9701,-3.9837,-3.9861,-3.9877,-3.9879,-3.9878,-3.9876,-3.9913,-3.99,-3.9881,-3.9879,-3.9878,-3.9877,0,-3.9011,-3.9034,-3.9181,-3.9248,-3.9268,-3.9364,-3.9423,-3.9504,-3.9529,-3.9645,-3.9673,-3.9713,-3.9819,-3.9843,-3.997,-3.9979,-4.0141,-4.0131,-4.0116,-4.0116,-4.0212,-4.0202,-4.052,-4.0562,-4.0298,-4.03,-4.0302,0,-3.9145,-3.9237,-3.9314,-3.9373,-3.9414,-3.9509,-3.9569,-3.9581,-3.9645,-3.9733,-3.9805,-3.9908,-3.9991,-4.0162,-4.0204,-4.0301,-4.0293,-4.0398,-4.0307,-4.0304,-4.0294,-4.0288,-4.0298,-4.0415,-4.0417,-4.042,-4.0422,0,-3.9382,-3.9389,-3.9475,-3.9566,-3.9638,-3.9711,-3.978,-3.983,-3.9852,-3.9925,-4.0032,-4.0096,-4.0225,-4.0328,-4.0426,-4.0467,-4.0449,-4.045,-4.0477,-4.0477,-4.0465,-4.0473,-4.0163,-4.0442,-4.044,-4.0439,-4.0438,-4.0437,-3.955,-3.963,-3.9696,-3.9793,-3.9847,-3.9912,-3.9991,-4.0026,-4.0115,-4.0219,-4.0221,-4.0338,-4.0409,-4.0537,-4.0585,-4.0678,-4.0646,-4.0686,-4.0696,-4.0706,-4.0714,-4.045,-4.0696,-4.0695,-4.0695,-4.0694,-4.0694,0,-3.9785,-3.9826,-3.9916,-4.0012,-4.0089,-4.0064,-4.0139,-4.0206,-4.0308,-4.0375,-4.0457,-4.058,-4.0681,-4.073,-4.083,-4.0895,-4.0889,-4.0921,-4.0916,-4.0926,-4.0737,-4.0703,-4.0924,-4.0924,-4.0924,-4.0924,-4.0924,-4.0924,-3.9917,-4.005,-4.0065,-4.0226,-4.0267,-4.038,-4.0426,-4.0486,-4.0539,-4.0677,-4.076,-4.0791,-4.0851,-4.0955,-4.1047,-4.1059,-4.1096,-4.1132,-4.1141,-4.0963,-4.0939,-4.0917,-4.0885,-4.1141,-4.1141,-4.1322,-4.1323,-4.1325]},{"header":{"parameterUnit":"m.s-1","parameterCategory":1,"la1":30.2991,"la2":30.254,"lo1":-89.0895,"lo2":-89.0444,"dx":0.0017,"dy":0.0017,"nx":28,"ny":28,"refTime":"2022-11-30T15:00:00:Z","depth":0,"parameterNumber":3,"parameterNumberName":"V-component_of_WINDS"},"data":[0,0,0,0,0,0,0,0,0,0,0,0,0,0,0,0,0,0,0,0,0,0,0,0,0,0,0,0,0,0,0,0,0,0,0,0,0,0,0,0,0,0,0,0,0,0,0,0,0,0,0,0,0,0,0,0,0,0,-1.045,-1.045,0,-1.0504,-1.0504,-1.0505,-1.0576,-1.0577,-1.0578,-1.0579,-1.0629,-1.0629,-1.0629,0,0,0,0,0,0,0,0,0,0,0,0,0,-1.0403,-1.0403,-1.045,-1.045,-1.0451,-1.0503,-1.0504,-1.0505,-1.0576,-1.0577,-1.0578,-1.058,-1.0629,-1.0629,-1.0629,0,0,0,0,0,0,0,0,0,0,0,0,0,-1.0436,-1.0403,-1.0449,-1.0493,-1.0497,-1.0503,-1.0504,-1.0505,-1.0575,-1.0577,-1.0579,-1.058,-1.0629,-1.0629,-1.0629,-1.0596,0,0,-1.063,-1.063,0,0,0,0,0,0,0,0,-1.0434,-1.0438,-1.0486,-1.049,-1.0495,-1.0535,-1.0506,-1.0535,-1.0575,-1.0545,-1.0579,-1.0581,-1.0596,-1.0599,-1.0605,-1.0598,-1.06,-1.063,-1.063,-1.0631,-1.0631,0,0,0,0,0,0,0,-1.0432,-1.0436,-1.0471,-1.0486,-1.0492,-1.0508,-1.0514,-1.0512,-1.056,-1.0548,-1.0553,-1.0559,-1.0598,-1.0604,-1.0606,-1.0601,-1.063,-1.063,-1.0631,-1.0631,-1.0567,-1.0566,0,0,0,0,0,0,-1.0424,-1.0433,-1.0469,-1.0472,-1.0468,-1.0507,-1.0515,-1.052,-1.056,-1.0568,-1.0558,-1.0562,-1.0603,-1.0606,-1.0608,-1.057,-1.0631,-1.0631,-1.0631,-1.0569,-1.0567,-1.0565,0,0,0,0,0,0,-1.0423,-1.0426,-1.0467,-1.0454,-1.0461,-1.0506,-1.0511,-1.052,-1.0526,-1.0567,-1.0576,-1.0555,-1.0604,-1.0608,-1.0598,-1.0573,-1.0631,-1.0631,-1.0572,-1.0569,-1.0566,-1.0493,0,0,0,0,0,0,-1.0421,-1.0425,-1.0414,-1.0454,-1.0461,-1.0457,-1.051,-1.052,-1.0527,-1.0534,-1.0567,-1.0574,-1.0606,-1.0597,-1.0599,-1.0574,-1.0631,-1.0574,-1.057,-1.0567,-1.0498,-1.0488,-1.048,0,0,0,0,0,-1.0419,-1.0391,-1.0413,-1.0417,-1.0448,-1.0455,-1.0459,-1.0498,-1.0525,-1.0513,-1.0539,-1.0573,-1.0576,-1.0596,-1.0598,-1.0573,-1.0576,-1.0571,-1.0567,-1.0502,-1.049,-1.048,0,0,0,0,0,0,-1.0344,-1.0396,-1.0422,-1.0406,-1.0426,-1.0467,-1.0453,-1.0485,-1.0496,-1.0501,-1.0548,-1.0555,-1.0538,-1.0556,-1.0576,-1.0542,-1.0581,-1.0577,-1.0531,-1.052,-1.0511,-1.0505,-1.0632,0,0,0,0,0,-1.0327,-1.033,-1.0375,-1.0356,-1.0365,-1.0407,-1.0412,-1.0441,-1.0462,-1.047,-1.0496,-1.0514,-1.0519,-1.0521,-1.0528,-1.0503,-1.0509,-1.0486,-1.0477,-1.047,-1.0464,-1.045,-1.0439,-1.0551,-1.0551,-1.0551,0,0,-1.0288,-1.0318,-1.0316,-1.0342,-1.036,-1.036,-1.0414,-1.0412,-1.0412,-1.0469,-1.0461,-1.0481,-1.0504,-1.0486,-1.0479,-1.0499,-1.0436,-1.0464,-1.0458,-1.0457,-1.0444,-1.0434,-1.0424,-1.0548,-1.0549,-1.0549,0,0,-1.0219,-1.0242,-1.0229,-1.0247,-1.0276,-1.0305,-1.0301,-1.0338,-1.0354,-1.0348,-1.0391,-1.0391,-1.0399,-1.0413,-1.0422,-1.0359,-1.0389,-1.036,-1.0311,-1.0296,-1.0288,-1.028,-1.0254,-1.0245,-1.0356,-1.0355,-1.0355,0,-1.0167,-1.0171,-1.0217,-1.0213,-1.0221,-1.0277,-1.0262,-1.0277,-1.0305,-1.0309,-1.0333,-1.0344,-1.0364,-1.0348,-1.0333,-1.034,-1.0335,-1.0354,-1.0286,-1.0278,-1.0272,-1.0248,-1.0239,-1.0351,-1.0352,-1.0352,-1.0353,0,-1.0104,-1.0106,-1.0092,-1.012,-1.0128,-1.0118,-1.0161,-1.0163,-1.0192,-1.0217,-1.0209,-1.0235,-1.0248,-1.0247,-1.0275,-1.0235,-1.0247,-1.0278,-1.0317,-1.0256,-1.0234,-1.0226,-1.0346,-1.0347,-1.0348,-1.0349,0,0,-0.9985,-1.0041,-1.0034,-1.0047,-1.0084,-1.0085,-1.0078,-1.0092,-1.0092,-1.0111,-1.0103,-1.011,-1.0138,-1.0148,-1.0178,-1.0165,-1.011,-1.0197,-1.0198,-1.0177,-1.0066,-1.0039,-1.0028,-1.0133,-1.0131,-1.013,-1.0063,0,-0.9919,-0.9911,-0.9953,-0.9932,-0.9933,-0.9987,-0.998,-1.0001,-1.0025,-1.0028,-1.0055,-1.0058,-1.0097,-1.0103,-1.0093,-1.0119,-1.0088,-1.0125,-1.0123,-1.0122,-1.0112,-1.0018,-0.999,-0.9925,-1.0055,-1.0053,-1.0052,0,-0.984,-0.9856,-0.9836,-0.9874,-0.9876,-0.9869,-0.9885,-0.9889,-0.9913,-0.9932,-0.9943,-0.9978,-0.9971,-1.0012,-1.0002,-1.0026,-1.0028,-1.0041,-1.0039,-1.0037,-1.0081,-1.0009,-0.9905,-0.9894,-1.004,-1.0041,-1.0042,0,-0.9751,-0.9768,-0.9758,-0.9768,-0.9812,-0.9806,-0.9824,-0.985,-0.9856,-0.987,-0.9874,-0.9887,-0.9892,-0.99,-0.9937,-0.9964,-0.9922,-0.9966,-0.9934,-0.9932,-0.9919,-0.9918,-0.9809,-0.9927,-0.9927,-0.9927,-0.9927,0,-0.9671,-0.9655,-0.9718,-0.9711,-0.9695,-0.9744,-0.9726,-0.975,-0.9773,-0.977,-0.9818,-0.9814,-0.9865,-0.9866,-0.9895,-0.988,-0.9883,-0.9896,-0.9903,-0.9889,-0.9887,-0.9888,-0.9892,-0.9925,-0.9925,-0.9926,-0.9926,0,-0.9566,-0.9608,-0.96,-0.9644,-0.9655,-0.9641,-0.9677,-0.9672,-0.9701,-0.9696,-0.9698,-0.9742,-0.9746,-0.9785,-0.9797,-0.9816,-0.9788,-0.9806,-0.978,-0.9784,-0.9749,-0.975,-0.9633,-0.9619,-0.9749,-0.9748,-0.9747,0,-0.9509,-0.9499,-0.9543,-0.9545,-0.9562,-0.9565,-0.9572,-0.9621,-0.9625,-0.9653,-0.9643,-0.9651,-0.966,-0.9663,-0.9694,-0.9703,-0.9719,-0.9678,-0.972,-0.9706,-0.9714,-0.9712,-0.971,-0.9667,-0.9666,-0.9664,-0.9663,0,-0.9404,-0.9426,-0.9435,-0.9451,-0.9458,-0.9473,-0.949,-0.9489,-0.9543,-0.9545,-0.9551,-0.9558,-0.9571,-0.9577,-0.9592,-0.9609,-0.9643,-0.9651,-0.9643,-0.9626,-0.961,-0.9615,-0.9751,-0.9652,-0.9653,-0.9654,-0.9654,-0.9655,-0.9319,-0.9312,-0.9341,-0.935,-0.9369,-0.9384,-0.9381,-0.941,-0.9417,-0.9432,-0.9461,-0.9461,-0.9485,-0.951,-0.9523,-0.9523,-0.9544,-0.9534,-0.953,-0.9526,-0.9517,-0.9614,-0.9526,-0.9527,-0.9527,-0.9528,-0.9528,0,-0.9212,-0.9235,-0.9242,-0.9266,-0.9272,-0.9309,-0.9331,-0.9332,-0.9333,-0.9354,-0.9363,-0.9368,-0.9375,-0.9408,-0.9418,-0.9411,-0.9427,-0.9412,-0.941,-0.9413,-0.95,-0.9504,-0.9399,-0.9399,-0.9399,-0.9399,-0.9399,-0.9399,-0.9157,-0.9146,-0.9172,-0.917,-0.9193,-0.9195,-0.9204,-0.9218,-0.9235,-0.924,-0.9246,-0.927,-0.9295,-0.9307,-0.9314,-0.9324,-0.9323,-0.9302,-0.9316,-0.9395,-0.9407,-0.9419,-0.9423,-0.9302,-0.9302,-0.9229,-0.9228,-0.9227]}]]